Sulphur, LA

4:31 PM CDT on August 28, 2016 (GMT -0500)
Sulphur

Weather History for KUXL - October, 2013

Change the Weather History Date:

Saturday, October 12, 2013

  Actual Average (KLCH) Record (KLCH)
Temperature  
Mean Temperature 80 °F 71 °F  
Max Temperature 90 °F 82 °F 91 °F (1929)
Min Temperature 70 °F 61 °F 43 °F (1908)
Degree Days  
Heating Degree Days 0 1  
Month to date heating degree days 3  
Since 1 July heating degree days 4  
Cooling Degree Days 14 7  
Month to date cooling degree days 99  
Year to date cooling degree days 2639  
Growing Degree Days 30 (Base 50)    
Moisture  
Dew Point 74 °F    
Average Humidity 85    
Maximum Humidity 99    
Minimum Humidity 57    
Precipitation  
Precipitation 0.49 in 0.15 in 1.60 in (1901)
Month to date precipitation 1.63  
Year to date precipitation 45.11  
Snow  
Snow 0.00 in 0.00 in 0.00 in ()
Month to date snowfall 0.0  
Since 1 July snowfall 0.0  
Since 1 September snowfall 0.0  
Snow Depth -    
Sea Level Pressure  
Sea Level Pressure 30.02 in    
Wind  
Wind Speed 5 mph (SE)    
Max Wind Speed 16 mph    
Max Gust Speed 24 mph    
Visibility 8 miles    
Events Rain , Thunderstorm    
T = Trace of Precipitation, MM = Missing Value Source: NWS Daily Summary

Daily Weather History Graph

Daily Weather History Graph

Search for Another Location

Airport or City:

Trip Planner

Search our weather history database for the weather conditions in past years. The results will help you decide how hot, cold, wet, or windy it might be!

Date:

Astronomy

Oct. 12, 2013 Rise Set
Actual Time 7:13 AM CDT 6:45 PM CDT
Civil Twilight 6:49 AM CDT 7:09 PM CDT
Nautical Twilight 6:21 AM CDT 7:37 PM CDT
Astronomical Twilight 5:54 AM CDT 8:05 PM CDT
Moon 2:31 PM CDT (10/12) 12:44 AM CDT (10/12)
Length of Visible Light 12h 20m
Length of Day
11h 31m
First Quarter, 59% of the Moon is Illuminated
Oct 12
First Quarter
Oct 18
Full
Oct 26
Last Quarter
Nov 3
New
Nov 9
First Quarter

Hourly Weather History & Observations

Time (CDT) Temp. Heat Index Dew Point Humidity Pressure Visibility Wind Dir Wind Speed Gust Speed Precip Events Conditions
12:15 AM 75.2 °F - 74.3 °F 97% 29.96 in 7.0 mi East 4.6 mph - N/A   Clear
12:35 AM 74.8 °F - 74.3 °F 98% 29.96 in 7.0 mi ESE 3.5 mph - N/A   Clear
12:55 AM 75.2 °F - 74.5 °F 98% 29.96 in 10.0 mi ESE 4.6 mph - N/A   Clear
1:15 AM 75.2 °F - 74.3 °F 97% 29.96 in 7.0 mi ESE 3.5 mph - N/A   Clear
1:35 AM 75.2 °F - 74.3 °F 97% 29.96 in 10.0 mi ESE 5.8 mph - N/A   Scattered Clouds
1:55 AM 75.2 °F - 74.3 °F 97% 29.96 in 10.0 mi ESE 4.6 mph - N/A   Scattered Clouds
2:15 AM 75.2 °F - 74.3 °F 97% 29.96 in 10.0 mi ESE 3.5 mph - N/A   Clear
2:35 AM 74.7 °F - 73.9 °F 98% 29.96 in 7.0 mi East 4.6 mph - N/A   Clear
2:55 AM 75.2 °F - 74.3 °F 97% 29.96 in 10.0 mi East 3.5 mph - N/A   Clear
3:15 AM 74.7 °F - 73.9 °F 98% 29.96 in 7.0 mi East 4.6 mph - N/A   Clear
3:35 AM 75.0 °F - 74.3 °F 98% 29.97 in 5.0 mi East 5.8 mph - N/A   Clear
3:55 AM 74.5 °F - 73.8 °F 98% 29.97 in 4.0 mi East 3.5 mph - N/A   Scattered Clouds
4:15 AM 74.7 °F - 74.3 °F 99% 29.97 in 2.5 mi East 5.8 mph - N/A   Overcast
4:35 AM 74.7 °F - 74.3 °F 99% 29.97 in 2.5 mi ESE 3.5 mph - N/A   Mostly Cloudy
4:55 AM 74.3 °F - 73.8 °F 98% 29.98 in 2.5 mi Calm Calm - N/A   Scattered Clouds
5:15 AM 74.3 °F - 73.8 °F 98% 29.98 in 3.0 mi East 3.5 mph - N/A   Scattered Clouds
5:35 AM 74.5 °F - 74.3 °F 99% 29.99 in 4.0 mi East 3.5 mph - N/A   Clear
5:55 AM 74.7 °F - 74.3 °F 99% 29.99 in 4.0 mi East 4.6 mph - N/A   Clear
6:15 AM 74.5 °F - 74.1 °F 99% 30.00 in 4.0 mi East 4.6 mph - N/A   Clear
6:35 AM 74.3 °F - 73.8 °F 98% 30.00 in 4.0 mi East 4.6 mph - N/A   Clear
6:55 AM 73.8 °F - 73.4 °F 99% 30.01 in 3.0 mi East 3.5 mph - N/A   Clear
7:15 AM 73.8 °F - 73.4 °F 99% 30.01 in 4.0 mi East 3.5 mph - N/A   Clear
7:35 AM 74.3 °F - 73.8 °F 98% 30.02 in 4.0 mi Calm Calm - N/A   Clear
7:55 AM 74.5 °F - 74.3 °F 99% 30.03 in 4.0 mi Calm Calm - N/A   Clear
8:15 AM 75.6 °F - 75.2 °F 99% 30.03 in 5.0 mi Calm Calm - N/A   Clear
8:35 AM 76.8 °F - 76.3 °F 98% 30.04 in 10.0 mi East 3.5 mph - N/A   Clear
8:55 AM 78.3 °F - 76.1 °F 93% 30.04 in 10.0 mi East 3.5 mph - N/A   Clear
9:15 AM 79.9 °F - 76.8 °F 90% 30.05 in 10.0 mi ESE 4.6 mph - N/A   Clear
9:35 AM 80.4 °F 86.6 °F 77.0 °F 89% 30.06 in 10.0 mi East 3.5 mph - N/A   Clear
9:55 AM 82.0 °F 90.8 °F 77.9 °F 87% 30.05 in 10.0 mi ESE 3.5 mph - N/A   Clear
10:15 AM 82.6 °F 92.0 °F 77.9 °F 86% 30.06 in 10.0 mi SSE 3.5 mph - N/A   Scattered Clouds
10:35 AM 84.0 °F 94.4 °F 77.5 °F 81% 30.06 in 10.0 mi SE 5.8 mph - N/A   Scattered Clouds
10:55 AM 84.0 °F 94.4 °F 77.7 °F 81% 30.06 in 10.0 mi SE 5.8 mph - N/A   Mostly Cloudy
11:15 AM 84.7 °F 94.8 °F 77.0 °F 77% 30.06 in 10.0 mi South 6.9 mph - N/A   Mostly Cloudy
11:35 AM 86.0 °F 97.8 °F 77.5 °F 76% 30.05 in 10.0 mi SSE 8.1 mph - N/A   Mostly Cloudy
11:55 AM 87.1 °F 96.8 °F 75.6 °F 68% 30.05 in 10.0 mi SSE 6.9 mph - N/A   Mostly Cloudy
12:15 PM 85.1 °F 93.3 °F 74.8 °F 71% 30.04 in 10.0 mi SSW 6.9 mph - N/A   Mostly Cloudy
12:35 PM 87.4 °F 95.3 °F 73.6 °F 63% 30.03 in 10.0 mi SSW 8.1 mph - N/A   Mostly Cloudy
12:55 PM 88.2 °F 95.5 °F 72.5 °F 60% 30.03 in 10.0 mi South 8.1 mph - N/A   Scattered Clouds
1:15 PM 88.3 °F 96.9 °F 73.8 °F 62% 30.02 in 10.0 mi SSE 6.9 mph - N/A   Scattered Clouds
1:35 PM 88.5 °F 96.8 °F 73.6 °F 61% 30.01 in 10.0 mi SSE 4.6 mph - N/A   Scattered Clouds
1:55 PM 88.7 °F 97.2 °F 73.8 °F 61% 30.00 in 10.0 mi South 5.8 mph - N/A   Scattered Clouds
2:15 PM 88.2 °F 96.9 °F 73.9 °F 63% 29.99 in 10.0 mi South 10.4 mph 20.7 mph N/A   Scattered Clouds
2:35 PM 88.9 °F 98.1 °F 74.1 °F 62% 29.98 in 10.0 mi SSE 9.2 mph - N/A   Scattered Clouds
2:55 PM 88.9 °F 97.1 °F 73.4 °F 60% 29.98 in 10.0 mi South 11.5 mph - N/A   Scattered Clouds
3:15 PM 88.9 °F 96.6 °F 72.7 °F 59% 29.97 in 10.0 mi South 10.4 mph - N/A   Scattered Clouds
3:35 PM 89.4 °F 96.8 °F 72.1 °F 57% 29.97 in 10.0 mi South 9.2 mph - N/A   Clear
3:55 PM 88.3 °F 95.4 °F 72.1 °F 59% 29.96 in 10.0 mi South 10.4 mph 16.1 mph N/A   Clear
4:15 PM 88.2 °F 96.0 °F 73.0 °F 61% 29.97 in 10.0 mi South 10.4 mph - N/A   Clear
4:35 PM 88.2 °F 96.0 °F 73.0 °F 61% 29.97 in 10.0 mi South 10.4 mph - N/A   Clear
4:55 PM 87.1 °F 94.9 °F 73.4 °F 64% 29.97 in 10.0 mi South 11.5 mph - N/A   Clear
5:15 PM 86.0 °F 94.2 °F 74.5 °F 68% 29.98 in 10.0 mi South 10.4 mph - N/A   Clear
5:35 PM 84.2 °F 91.6 °F 74.3 °F 72% 29.99 in 10.0 mi South 9.2 mph - N/A   Clear
5:55 PM 82.9 °F 89.7 °F 74.3 °F 75% 30.00 in 10.0 mi South 6.9 mph - N/A   Clear
6:15 PM 82.0 °F 88.6 °F 74.8 °F 79% 30.00 in 10.0 mi South 9.2 mph - N/A   Clear
6:35 PM 81.5 °F 87.6 °F 74.8 °F 80% 30.01 in 10.0 mi South 8.1 mph - N/A   Clear
6:55 PM 80.8 °F 86.5 °F 75.2 °F 83% 30.02 in 10.0 mi SSW 6.9 mph - N/A   Clear
7:15 PM 80.6 °F 86.2 °F 75.4 °F 84% 30.02 in 10.0 mi South 4.6 mph - N/A   Clear
7:35 PM 79.9 °F - 76.6 °F 90% 30.04 in 10.0 mi South 4.6 mph - N/A   Clear
7:55 PM 79.9 °F - 77.0 °F 91% 30.05 in 10.0 mi Calm Calm - N/A   Clear
8:15 PM 79.0 °F - 76.5 °F 92% 30.05 in 10.0 mi Calm Calm - N/A   Scattered Clouds
8:35 PM 78.8 °F - 77.0 °F 94% 30.07 in 10.0 mi NNE 4.6 mph - N/A   Scattered Clouds
8:55 PM 79.3 °F - 77.0 °F 93% 30.07 in 10.0 mi North 5.8 mph - N/A   Mostly Cloudy
9:15 PM 74.7 °F - 68.0 °F 80% 30.10 in 10.0 mi North 16.1 mph 23.0 mph N/A Rain Light Rain
9:35 PM 72.0 °F - 70.3 °F 95% 30.11 in 1.8 mi NE 11.5 mph 24.2 mph 0.28 in Rain , Thunderstorm Heavy Thunderstorms and Rain
9:55 PM 71.6 °F - 70.7 °F 97% 30.13 in 4.0 mi ENE 10.4 mph 16.1 mph 0.39 in Rain , Thunderstorm Heavy Thunderstorms and Rain
10:15 PM 70.9 °F - 69.8 °F 96% 30.12 in 5.0 mi ENE 9.2 mph 19.6 mph 0.04 in Rain Rain
10:35 PM 71.1 °F - 70.0 °F 96% 30.11 in 7.0 mi ENE 11.5 mph 19.6 mph 0.08 in Rain Rain
10:55 PM 71.4 °F - 70.0 °F 95% 30.10 in 10.0 mi East 9.2 mph - 0.10 in Rain Light Rain
11:15 PM 71.4 °F - 70.2 °F 96% 30.10 in 10.0 mi ENE 8.1 mph - N/A Rain Light Rain
11:35 PM 71.6 °F - 70.7 °F 97% 30.09 in 10.0 mi East 8.1 mph - N/A   Light Drizzle
11:55 PM 71.8 °F - 70.7 °F 96% 30.09 in 10.0 mi East 4.6 mph - N/A   Mostly Cloudy